[[{"header":{"parameterUnit":"m.s-1","parameterCategory":1,"la1":30.2991,"la2":30.254,"lo1":-89.0895,"lo2":-89.0444,"dy":0.0017,"dx":0.0017,"nx":28,"ny":28,"refTime":"2025-04-17T21:00:00:Z","depth":0,"parameterNumber":2,"parameterNumberName":"U-component_of_WINDS"},"data":[0,0,0,0,0,0,0,0,0,0,0,0,0,0,0,0,0,0,0,0,0,0,0,0,0,0,0,0,0,0,0,0,0,0,0,0,0,0,0,0,0,0,0,0,0,0,0,0,0,0,0,0,0,0,0,0,0,0,-2.0311,-2.0312,0,-2.0405,-2.0406,-2.0407,-2.0428,-2.0427,-2.0427,-2.0426,-2.0526,-2.0529,-2.0532,0,0,0,0,0,0,0,0,0,0,0,0,0,-2.0152,-2.0154,-2.031,-2.0312,-2.0313,-2.0405,-2.0406,-2.0407,-2.0428,-2.0427,-2.0427,-2.0426,-2.0524,-2.0528,-2.0532,0,0,0,0,0,0,0,0,0,0,0,0,0,-2.0231,-2.0155,-2.031,-2.0334,-2.0337,-2.0405,-2.0406,-2.0408,-2.0428,-2.0427,-2.0426,-2.0425,-2.0523,-2.0528,-2.0533,-2.0584,0,0,-2.0548,-2.055,0,0,0,0,0,0,0,0,-2.0226,-2.0237,-2.033,-2.0333,-2.0336,-2.0404,-2.0387,-2.0467,-2.0429,-2.0394,-2.0426,-2.0425,-2.0486,-2.0494,-2.0514,-2.0588,-2.0593,-2.0548,-2.0551,-2.0553,-2.0555,0,0,0,0,0,0,0,-2.0221,-2.0233,-2.0348,-2.0331,-2.0335,-2.0341,-2.0352,-2.0402,-2.0445,-2.0397,-2.0399,-2.0409,-2.0488,-2.0509,-2.0516,-2.0594,-2.0548,-2.0553,-2.0556,-2.0557,-2.0716,-2.0717,0,0,0,0,0,0,-2.0211,-2.0228,-2.0345,-2.0351,-2.0278,-2.0345,-2.0356,-2.0383,-2.0444,-2.0452,-2.041,-2.041,-2.0501,-2.0511,-2.052,-2.0584,-2.0553,-2.0558,-2.0561,-2.0715,-2.0716,-2.0717,0,0,0,0,0,0,-2.0207,-2.0221,-2.0341,-2.029,-2.0306,-2.0349,-2.0379,-2.0385,-2.0407,-2.0454,-2.0462,-2.0424,-2.0501,-2.0513,-2.0568,-2.0588,-2.056,-2.0565,-2.0713,-2.0715,-2.0717,-2.0712,0,0,0,0,0,0,-2.0202,-2.0219,-2.0238,-2.029,-2.0308,-2.0386,-2.038,-2.0388,-2.0415,-2.0416,-2.0469,-2.0477,-2.0501,-2.056,-2.0573,-2.0594,-2.0569,-2.0711,-2.0714,-2.0716,-2.071,-2.0713,-2.0715,0,0,0,0,0,-2.0197,-2.0234,-2.0239,-2.0253,-2.0333,-2.0387,-2.0398,-2.0424,-2.0417,-2.0437,-2.0467,-2.0475,-2.0583,-2.0566,-2.058,-2.0603,-2.071,-2.0713,-2.0716,-2.0709,-2.0712,-2.0715,0,0,0,0,0,0,-2.0184,-2.0241,-2.0248,-2.0302,-2.034,-2.0391,-2.0416,-2.0426,-2.0467,-2.0466,-2.0498,-2.051,-2.0562,-2.0588,-2.0567,-2.0656,-2.0647,-2.0653,-2.0637,-2.064,-2.0643,-2.0636,-2.0573,0,0,0,0,0,-2.0187,-2.0226,-2.0274,-2.0318,-2.0336,-2.0373,-2.0398,-2.0414,-2.0455,-2.0471,-2.0505,-2.0545,-2.0588,-2.0616,-2.0658,-2.0714,-2.0727,-2.0737,-2.074,-2.0742,-2.0746,-2.0779,-2.0784,-2.0727,-2.0727,-2.0727,0,0,-2.0195,-2.0231,-2.0254,-2.0316,-2.0347,-2.0387,-2.0386,-2.0429,-2.0459,-2.0478,-2.0531,-2.0558,-2.0604,-2.066,-2.0686,-2.0683,-2.0765,-2.0745,-2.0747,-2.075,-2.0782,-2.0787,-2.0792,-2.0729,-2.0728,-2.0728,0,0,-2.023,-2.026,-2.03,-2.0331,-2.0378,-2.0402,-2.0412,-2.0461,-2.048,-2.0533,-2.0548,-2.0586,-2.0659,-2.0692,-2.0718,-2.0765,-2.0775,-2.0778,-2.0792,-2.0823,-2.0828,-2.0832,-2.0849,-2.0855,-2.0783,-2.0783,-2.0783,0,-2.0234,-2.0294,-2.032,-2.0361,-2.0389,-2.0407,-2.0448,-2.0477,-2.0535,-2.0554,-2.055,-2.0642,-2.0675,-2.0739,-2.075,-2.0771,-2.0784,-2.0772,-2.0825,-2.0829,-2.0834,-2.085,-2.0857,-2.0783,-2.0783,-2.0783,-2.0783,0,-2.0296,-2.0338,-2.0365,-2.0419,-2.045,-2.0491,-2.0525,-2.0553,-2.0567,-2.0592,-2.0647,-2.0687,-2.0738,-2.0754,-2.0769,-2.082,-2.0817,-2.0818,-2.081,-2.0839,-2.0855,-2.0862,-2.0783,-2.0783,-2.0783,-2.0783,0,0,-2.0325,-2.0394,-2.0403,-2.0429,-2.0481,-2.0515,-2.0557,-2.0606,-2.063,-2.067,-2.0707,-2.0768,-2.077,-2.08,-2.0818,-2.0846,-2.0881,-2.0844,-2.0845,-2.0849,-2.0941,-2.0939,-2.0946,-2.0888,-2.0889,-2.089,-2.0937,0,-2.0366,-2.0441,-2.0466,-2.0529,-2.0568,-2.0586,-2.0624,-2.0661,-2.0686,-2.0724,-2.0752,-2.0795,-2.0794,-2.0812,-2.084,-2.0871,-2.09,-2.0868,-2.0923,-2.0925,-2.0911,-2.0955,-2.0953,-2.0995,-2.0943,-2.0944,-2.0945,0,-2.0424,-2.0464,-2.053,-2.0578,-2.0596,-2.0629,-2.0676,-2.0711,-2.0754,-2.077,-2.0804,-2.082,-2.0867,-2.0856,-2.092,-2.0898,-2.0923,-2.0941,-2.0944,-2.095,-2.0936,-2.0962,-2.1009,-2.1015,-2.0955,-2.0955,-2.0954,0,-2.0439,-2.0509,-2.0558,-2.0579,-2.0636,-2.0659,-2.0684,-2.0726,-2.0754,-2.0795,-2.0814,-2.0861,-2.0886,-2.0922,-2.0952,-2.0941,-2.1014,-2.1005,-2.1029,-2.1029,-2.1044,-2.1042,-2.1096,-2.106,-2.1059,-2.1059,-2.1059,0,-2.0482,-2.0522,-2.0565,-2.0595,-2.0641,-2.067,-2.0715,-2.0741,-2.0778,-2.0815,-2.0834,-2.0868,-2.0904,-2.0943,-2.0967,-2.1017,-2.1028,-2.1044,-2.1049,-2.1042,-2.104,-2.1058,-2.1056,-2.1061,-2.1061,-2.106,-2.106,0,-2.0506,-2.0536,-2.0591,-2.064,-2.0654,-2.0685,-2.0729,-2.0759,-2.0785,-2.0831,-2.0843,-2.0884,-2.0931,-2.0964,-2.1025,-2.1041,-2.1095,-2.11,-2.108,-2.1083,-2.1105,-2.1102,-2.1172,-2.1182,-2.1139,-2.1139,-2.114,0,-2.0531,-2.0562,-2.0615,-2.064,-2.0665,-2.0706,-2.0734,-2.0764,-2.0793,-2.0844,-2.0869,-2.0917,-2.0957,-2.1031,-2.1067,-2.1114,-2.1121,-2.1142,-2.1128,-2.1119,-2.1121,-2.1119,-2.1122,-2.1144,-2.1144,-2.1144,-2.1144,0,-2.0574,-2.0587,-2.0626,-2.0671,-2.0704,-2.0741,-2.0778,-2.0798,-2.0835,-2.0866,-2.0914,-2.0945,-2.1007,-2.1055,-2.1105,-2.1132,-2.1145,-2.1148,-2.1157,-2.1149,-2.1136,-2.1144,-2.1086,-2.1147,-2.1147,-2.1146,-2.1146,-2.1146,-2.0599,-2.0628,-2.0669,-2.0713,-2.0743,-2.0778,-2.0809,-2.0838,-2.0878,-2.093,-2.0945,-2.0995,-2.1038,-2.1107,-2.1135,-2.1175,-2.1174,-2.1185,-2.1188,-2.1191,-2.119,-2.113,-2.1184,-2.1184,-2.1184,-2.1184,-2.1184,0,-2.0643,-2.067,-2.0709,-2.076,-2.0795,-2.0803,-2.0844,-2.0873,-2.0916,-2.0954,-2.0993,-2.1048,-2.1095,-2.1134,-2.1183,-2.1207,-2.1214,-2.1219,-2.1218,-2.1224,-2.1189,-2.1177,-2.1212,-2.1212,-2.1212,-2.1212,-2.1212,-2.1212,-2.0669,-2.0718,-2.0736,-2.0801,-2.0828,-2.0876,-2.0899,-2.0932,-2.0962,-2.1023,-2.1061,-2.1086,-2.1125,-2.1177,-2.122,-2.1231,-2.1248,-2.1251,-2.1263,-2.1229,-2.1226,-2.1223,-2.1212,-2.1254,-2.1254,-2.1294,-2.1295,-2.1295]},{"header":{"parameterUnit":"m.s-1","parameterCategory":1,"la1":30.2991,"la2":30.254,"lo1":-89.0895,"lo2":-89.0444,"dy":0.0017,"dx":0.0017,"nx":28,"ny":28,"refTime":"2025-04-17T21:00:00:Z","depth":0,"parameterNumber":3,"parameterNumberName":"V-component_of_WINDS"},"data":[0,0,0,0,0,0,0,0,0,0,0,0,0,0,0,0,0,0,0,0,0,0,0,0,0,0,0,0,0,0,0,0,0,0,0,0,0,0,0,0,0,0,0,0,0,0,0,0,0,0,0,0,0,0,0,0,0,0,6.0201,6.0202,0,6.0269,6.027,6.027,6.0209,6.0206,6.0204,6.0202,6.0266,6.027,6.0274,0,0,0,0,0,0,0,0,0,0,0,0,0,6.0012,6.0015,6.0201,6.0202,6.0203,6.0269,6.027,6.0271,6.0209,6.0206,6.0203,6.02,6.0264,6.0269,6.0274,0,0,0,0,0,0,0,0,0,0,0,0,0,6.0088,6.0017,6.0201,6.018,6.0179,6.0269,6.027,6.0271,6.021,6.0206,6.0203,6.0199,6.0263,6.0269,6.0275,6.0386,0,0,6.0293,6.0296,0,0,0,0,0,0,0,0,6.0084,6.0095,6.0182,6.0182,6.0181,6.0227,6.0226,6.0309,6.0211,6.0198,6.0202,6.0197,6.0255,6.0262,6.0282,6.0389,6.0392,6.0294,6.0297,6.03,6.0302,0,0,0,0,0,0,0,6.0078,6.0092,6.0228,6.0184,6.0183,6.0165,6.0172,6.0242,6.0247,6.0199,6.0195,6.0204,6.0254,6.0277,6.0284,6.0393,6.0293,6.0299,6.0302,6.0305,6.0591,6.0595,0,0,0,0,0,0,6.0076,6.0088,6.0225,6.023,6.0122,6.0172,6.0179,6.0216,6.0246,6.0247,6.0207,6.0201,6.0268,6.0277,6.0286,6.0416,6.03,6.0305,6.0309,6.0587,6.0592,6.0596,0,0,0,0,0,0,6.0072,6.0089,6.0223,6.0158,6.0173,6.0179,6.022,6.0219,6.0242,6.0252,6.0252,6.023,6.0266,6.0277,6.0361,6.0417,6.0308,6.0314,6.0583,6.0589,6.0594,6.0679,0,0,0,0,0,0,6.0067,6.0088,6.0132,6.0159,6.0177,6.03,6.0224,6.0223,6.0253,6.0245,6.0273,6.0274,6.0264,6.0353,6.0367,6.0424,6.0318,6.0577,6.0585,6.0592,6.0671,6.0687,6.0701,0,0,0,0,0,6.0061,6.0153,6.0135,6.0152,6.0233,6.0303,6.0313,6.0301,6.0258,6.0301,6.0307,6.0273,6.0409,6.0362,6.0378,6.0437,6.0574,6.0583,6.0592,6.0665,6.0684,6.0701,0,0,0,0,0,0,6.0131,6.0156,6.0136,6.0241,6.027,6.0293,6.0347,6.0322,6.0363,6.0354,6.0336,6.0343,6.0431,6.0442,6.0389,6.0545,6.0484,6.0497,6.0534,6.0553,6.0567,6.0562,6.0323,0,0,0,0,0,6.0159,6.0216,6.0234,6.0324,6.034,6.0341,6.0371,6.0359,6.0389,6.04,6.0413,6.0441,6.0489,6.0522,6.0568,6.0673,6.0676,6.0721,6.0736,6.0748,6.0759,6.0812,6.0832,6.0626,6.0626,6.0626,0,0,6.0217,6.0237,6.0274,6.0339,6.036,6.0417,6.0352,6.0416,6.0457,6.0409,6.0489,6.05,6.0529,6.0624,6.0667,6.0636,6.0816,6.076,6.0769,6.0773,6.0824,6.0843,6.086,6.0632,6.0631,6.063,0,0,6.0351,6.0374,6.045,6.0473,6.0507,6.0507,6.0525,6.0551,6.0556,6.0637,6.0601,6.0649,6.0735,6.0757,6.0779,6.092,6.0889,6.0935,6.1012,6.1064,6.108,6.1095,6.1142,6.116,6.0946,6.0946,6.0946,0,6.0417,6.0504,6.0491,6.0558,6.0585,6.0547,6.0622,6.0644,6.0691,6.071,6.0676,6.0781,6.0798,6.0896,6.0931,6.0951,6.0969,6.0931,6.108,6.1094,6.1107,6.1152,6.117,6.0951,6.0951,6.095,6.095,0,6.0583,6.0644,6.0701,6.0748,6.0782,6.0853,6.0848,6.0885,6.0869,6.0872,6.0953,6.0973,6.102,6.1043,6.1029,6.1138,6.1118,6.1083,6.1021,6.1132,6.1174,6.1191,6.0959,6.0957,6.0955,6.0954,0,0,6.0763,6.0802,6.0823,6.0843,6.0877,6.0922,6.0989,6.1038,6.1068,6.1101,6.1155,6.1227,6.1194,6.1219,6.1207,6.1254,6.136,6.1211,6.1212,6.1236,6.148,6.1505,6.1525,6.1341,6.1345,6.1347,6.1476,0,6.0896,6.1016,6.1005,6.1117,6.1171,6.1134,6.1192,6.1218,6.1222,6.1266,6.127,6.1321,6.1274,6.1289,6.1334,6.1338,6.1409,6.1329,6.1389,6.1391,6.138,6.1548,6.1575,6.1696,6.1493,6.1496,6.1498,0,6.1068,6.1108,6.1225,6.1249,6.1271,6.1325,6.1366,6.1411,6.1438,6.1437,6.1465,6.1444,6.1509,6.1448,6.1536,6.1481,6.1505,6.1511,6.1515,6.1519,6.145,6.1553,6.1735,6.1752,6.1524,6.1522,6.152,0,6.1184,6.1268,6.1348,6.1366,6.1397,6.1435,6.1449,6.1473,6.1502,6.1538,6.1556,6.1599,6.1622,6.1655,6.1645,6.1601,6.1734,6.1672,6.1733,6.1733,6.1761,6.1759,6.1946,6.178,6.178,6.1779,6.1779,0,6.1333,6.1406,6.14,6.145,6.1529,6.1516,6.1594,6.1603,6.1624,6.1672,6.1643,6.1689,6.1674,6.1718,6.1711,6.1783,6.1794,6.1794,6.179,6.1795,6.1795,6.1809,6.18,6.1784,6.1783,6.1782,6.1781,0,6.1476,6.1476,6.1561,6.1583,6.159,6.1647,6.1665,6.171,6.1711,6.1773,6.1786,6.1788,6.1838,6.1832,6.1888,6.1883,6.1972,6.196,6.1963,6.196,6.202,6.2013,6.2221,6.2246,6.2066,6.2068,6.2069,0,6.157,6.1625,6.1653,6.1684,6.1701,6.1752,6.1781,6.1769,6.1801,6.1835,6.1876,6.1924,6.1961,6.2043,6.2047,6.2089,6.2076,6.2146,6.2082,6.2085,6.2075,6.2071,6.2075,6.2158,6.216,6.2162,6.2163,0,6.1737,6.1733,6.1778,6.1822,6.1858,6.1892,6.1923,6.1949,6.194,6.1976,6.2028,6.2057,6.2114,6.2161,6.2201,6.2212,6.2186,6.2184,6.2199,6.2204,6.2203,6.2202,6.1995,6.2179,6.2177,6.2176,6.2175,6.2175,6.1856,6.1903,6.1929,6.1979,6.2001,6.203,6.2072,6.2079,6.2123,6.2169,6.2159,6.2217,6.224,6.2291,6.2307,6.235,6.2324,6.2348,6.2353,6.2359,6.2365,6.2198,6.2357,6.2357,6.2356,6.2356,6.2356,0,6.2019,6.2034,6.208,6.2124,6.2162,6.2136,6.2168,6.2201,6.2253,6.2278,6.2315,6.2373,6.2418,6.2427,6.2469,6.2502,6.249,6.2513,6.2509,6.2512,6.2387,6.2368,6.2521,6.2521,6.2521,6.2521,6.2521,6.2521,6.2108,6.2184,6.2184,6.2269,6.2283,6.2341,6.2361,6.2386,6.2406,6.2472,6.251,6.2516,6.2533,6.2576,6.2616,6.2617,6.2632,6.266,6.2656,6.2538,6.2521,6.2505,6.2487,6.2664,6.2664,6.2777,6.2778,6.2779]}]]